KI5QWQ Weather Reports


time (UTC)temp
F
wind
direction
speed
knots
gust
knots
rain 1hr
in
rain 24hr
in
rain mn
in
humidity
%
barometer
mb
20260507161718 0 88 0.9 3.5 0.00 0.00 0.00 1023.4
20260507161214 0 11 0.0 2.6 0.00 0.00 0.00 1023.0
20260507160710 0 55 2.6 5.2 0.00 0.00 0.00 1022.4
20260507160207 0 341 0.9 3.5 0.00 0.00 0.00 1022.1
20260507155703 0 15 1.7 4.3 0.00 0.00 0.00 1022.8
20260507155159 0 307 0.0 5.2 0.00 0.00 0.00 1022.6
20260507154655 0 290 2.6 5.2 0.00 0.00 0.00 1022.6
20260507154153 0 340 2.6 7.8 0.00 0.00 0.00 1022.4
20260507153650 0 0 0.9 4.3 0.00 0.00 0.00 1022.4
20260507153146 0 197 2.6 4.3 0.00 0.00 0.00 1022.2
20260507152643 0 25 0.9 2.6 0.00 0.00 0.00 1023.1
20260507152139 0 221 0.0 2.6 0.00 0.00 0.00 1022.7
20260507151635 0 3 0.0 4.3 0.00 0.00 0.00 1023.2
20260507151132 0 206 1.7 6.1 0.00 0.00 0.00 1021.7
20260507150629 0 80 1.7 7.0 0.00 0.00 0.00 1022.4
20260507150125 0 39 0.9 4.3 0.00 0.00 0.00 1023.1
20260507145620 0 60 1.7 4.3 0.00 0.00 0.00 1022.8
20260507145119 0 68 0.9 2.6 0.00 0.00 0.00 1022.1
20260507144614 0 202 0.9 2.6 0.00 0.00 0.00 1022.2
20260507144113 0 49 0.0 5.2 0.00 0.00 0.00 1021.8
20260507143609 0 20 0.0 7.0 0.00 0.00 0.00 1021.8
20260507143106 0 240 0.0 5.2 0.00 0.00 0.00 1022.3
20260507142601 0 309 0.0 4.3 0.00 0.00 0.00 1022.3
20260507142059 0 118 0.0 6.1 0.00 0.00 0.00 1021.8
20260507141554 0 322 2.6 7.0 0.00 0.00 0.00 1021.8
20260507141051 0 16 1.7 5.2 0.00 0.00 0.00 1022.3
20260507140548 0 21 1.7 4.3 0.00 0.00 0.00 1022.1
20260507140046 0 99 0.0 3.5 0.00 0.00 0.00 1022.1
20260507135542 0 0 0.0 4.3 0.00 0.00 0.00 1022.1
20260507135040 0 315 1.7 5.2 0.00 0.00 0.00 1021.9
20260507134536 0 2 0.0 5.2 0.00 0.00 0.00 1021.5
20260507134032 0 19 0.0 8.7 0.00 0.00 0.00 1021.4
20260507133528 0 35 1.7 6.1 0.00 0.00 0.00 1021.6
20260507133027 0 295 0.9 9.6 0.00 0.00 0.00 1021.6
20260507132523 0 24 1.7 4.3 0.00 0.00 0.00 1021.8
20260507132019 0 156 0.9 7.0 0.00 0.00 0.00 1021.7
20260507131516 0 354 3.5 6.1 0.00 0.00 0.00 1021.9
20260507131013 0 80 1.7 5.2 0.00 0.00 0.00 1021.7
20260507130510 0 324 1.7 7.8 0.00 0.00 0.00 1021.8
20260507130009 0 38 1.7 6.1 0.00 0.00 0.00 1021.5
20260507125507 0 348 0.9 6.1 0.00 0.00 0.00 1021.6
20260507125004 0 43 1.7 8.7 0.00 0.00 0.00 1021.7
20260507124500 0 295 2.6 7.0 0.00 0.00 0.00 1021.7
20260507123958 0 9 0.9 6.1 0.00 0.00 0.00 1021.9
20260507123455 0 231 0.9 7.8 0.00 0.00 0.00 1021.8
20260507122951 0 41 1.7 6.1 0.00 0.00 0.00 1021.6
20260507122447 0 316 2.6 5.2 0.00 0.00 0.00 1021.4
20260507121943 0 348 1.7 6.1 0.00 0.00 0.00 1021.3
20260507121438 0 16 1.7 5.2 0.00 0.00 0.00 1021.1
20260507120935 0 345 3.5 7.8 0.00 0.00 0.00 1021.0
20260507120224 0 13 2.6 7.8 0.00 0.00 0.00 1020.6
20260507115720 0 13 2.6 7.8 0.00 0.00 0.00 1020.6
20260507115216 0 113 2.6 7.0 0.00 0.00 0.00 1020.6
20260507114712 0 55 3.5 8.7 0.00 0.00 0.00 1020.7
20260507114210 0 107 0.9 6.1 0.00 0.00 0.00 1020.8
20260507113707 0 357 0.9 7.0 0.00 0.00 0.00 1021.0
20260507113203 0 101 1.7 6.1 0.00 0.00 0.00 1020.9
20260507112701 0 34 2.6 4.3 0.00 0.00 0.00 1020.9
20260507112158 0 52 0.9 7.0 0.00 0.00 0.00 1020.7
20260507111655 0 358 2.6 6.1 0.00 0.00 0.00 1020.6
20260507111152 0 197 0.9 4.3 0.00 0.00 0.00 1020.7
20260507110648 0 42 1.7 3.5 0.00 0.00 0.00 1020.7
20260507110145 0 25 0.9 3.5 0.00 0.00 0.00 1020.6
20260507105642 0 342 0.9 3.5 0.00 0.00 0.00 1020.6
20260507105137 0 31 2.6 6.1 0.00 0.00 0.00 1020.7
20260507104635 0 269 2.6 6.1 0.00 0.00 0.00 1020.8
20260507104131 0 150 2.6 8.7 0.00 0.00 0.00 1020.7
20260507103627 0 84 1.7 6.1 0.00 0.00 0.00 1020.2
20260507103124 0 330 2.6 4.3 0.00 0.00 0.00 1020.1
20260507102621 0 345 1.7 5.2 0.00 0.00 0.00 1020.3
20260507102117 0 9 2.6 5.2 0.00 0.00 0.00 1020.8
20260507101613 0 87 1.7 5.2 0.00 0.00 0.00 1020.7
20260507101109 0 20 1.7 4.3 0.00 0.00 0.00 1020.5
20260507100606 0 118 1.7 4.3 0.00 0.00 0.00 1020.3
20260507100105 0 71 0.9 4.3 0.00 0.00 0.00 1020.4
20260507095602 0 0 1.7 4.3 0.00 0.00 0.00 1020.4
20260507095058 0 285 2.6 7.8 0.00 0.00 0.00 1020.5
20260507094555 0 79 0.0 3.5 0.00 0.00 0.00 1020.5
20260507094052 0 330 1.7 2.6 0.00 0.00 0.00 1020.4
20260507093549 0 352 3.5 7.0 0.00 0.00 0.00 1020.0
20260507093048 0 7 3.5 6.1 0.00 0.00 0.00 1020.0
20260507092544 0 119 0.0 3.5 0.00 0.00 0.00 1020.0
20260507092041 0 10 4.3 7.0 0.00 0.00 0.00 1020.2
20260507091538 0 34 1.7 3.5 0.00 0.00 0.00 1020.2
20260507091034 0 71 1.7 3.5 0.00 0.00 0.00 1019.7
20260507090529 0 35 0.9 4.3 0.00 0.00 0.00 1019.9
20260507090026 0 255 0.9 3.5 0.00 0.00 0.00 1019.4
20260507085524 0 82 1.7 4.3 0.00 0.00 0.00 1019.6
20260507085020 0 257 0.0 3.5 0.00 0.00 0.00 1019.3
20260507084517 0 308 1.7 3.5 0.00 0.00 0.00 1019.3
20260507084014 0 129 0.0 2.6 0.00 0.00 0.00 1019.6
20260507083510 0 154 1.7 1.7 0.00 0.00 0.00 1019.1
20260507083007 0 268 0.0 3.5 0.00 0.00 0.00 1019.4
20260507082503 0 55 0.9 3.5 0.00 0.00 0.00 1019.2
20260507081959 0 18 0.0 4.3 0.00 0.00 0.00 1019.0
20260507081455 0 343 1.7 2.6 0.00 0.00 0.00 1019.2
20260507080953 0 66 1.7 3.5 0.00 0.00 0.00 1019.3
20260507080448 0 149 1.7 2.6 0.00 0.00 0.00 1018.9
20260507075944 0 72 1.7 3.5 0.00 0.00 0.00 1018.6
20260507075441 0 82 0.9 4.3 0.00 0.00 0.00 1018.7
20260507074937 0 76 0.9 2.6 0.00 0.00 0.00 1019.2
20260507074434 0 145 0.0 1.7 0.00 0.00 0.00 1019.0
20260507073932 0 53 0.0 2.6 0.00 0.00 0.00 1018.4
20260507073428 0 54 2.6 6.1 0.00 0.00 0.00 1018.7
20260507072925 0 82 0.9 4.3 0.00 0.00 0.00 1018.5
20260507072423 0 216 0.0 3.5 0.00 0.00 0.00 1018.6
20260507071920 0 42 1.7 4.3 0.00 0.00 0.00 1018.7
20260507071417 0 132 0.0 2.6 0.00 0.00 0.00 1019.0
20260507070913 0 36 0.0 3.5 0.00 0.00 0.00 1018.9
20260507070411 0 57 1.7 1.7 0.00 0.00 0.00 1018.7
20260507065907 0 10 0.0 3.5 0.00 0.00 0.00 1018.7
20260507065404 0 346 2.6 3.5 0.00 0.00 0.00 1018.5
20260507064901 0 42 0.9 5.2 0.00 0.00 0.00 1018.4
20260507064359 0 212 0.0 2.6 0.00 0.00 0.00 1018.3
20260507063857 0 156 0.0 1.7 0.00 0.00 0.00 1018.5
20260507063354 0 147 0.0 1.7 0.00 0.00 0.00 1018.6
20260507062851 0 171 0.9 1.7 0.00 0.00 0.00 1018.6
20260507062347 0 266 0.0 2.6 0.00 0.00 0.00 1018.7
20260507061845 0 49 2.6 3.5 0.00 0.00 0.00 1018.7
20260507061343 0 117 0.0 2.6 0.00 0.00 0.00 1018.9
20260507060841 0 12 1.7 3.5 0.00 0.00 0.00 1019.0
20260507060338 0 150 0.0 2.6 0.00 0.00 0.00 1019.0
20260507055835 0 135 1.7 2.6 0.00 0.00 0.00 1018.6
20260507055330 0 44 1.7 2.6 0.00 0.00 0.00 1018.6
20260507054827 0 7 0.9 2.6 0.00 0.00 0.00 1018.9
20260507054323 0 167 0.0 7.8 0.00 0.00 0.00 1018.5
20260507053820 0 58 0.9 2.6 0.00 0.00 0.00 1018.5
20260507053318 0 147 0.9 6.1 0.00 0.00 0.00 1018.4
20260507052817 0 75 2.6 5.2 0.00 0.00 0.00 1018.5
20260507052313 0 242 0.9 3.5 0.00 0.00 0.00 1018.7
20260507051811 0 97 2.6 4.3 0.00 0.00 0.00 1018.7
20260507051308 0 68 1.7 4.3 0.00 0.00 0.00 1018.4
20260507050804 0 88 0.0 5.2 0.00 0.00 0.00 1018.5
20260507050301 0 91 2.6 4.3 0.00 0.00 0.00 1018.7
20260507045758 0 101 0.9 4.3 0.00 0.00 0.00 1018.8
20260507045254 0 102 1.7 3.5 0.00 0.00 0.00 1018.7
20260507044751 0 118 0.9 2.6 0.00 0.00 0.00 1018.7
20260507044248 0 301 0.0 4.3 0.00 0.00 0.00 1018.5
20260507043744 0 66 1.7 5.2 0.00 0.00 0.00 1018.7
20260507043241 0 95 0.0 2.6 0.00 0.00 0.00 1018.8
20260507042737 0 26 1.7 5.2 0.00 0.00 0.00 1018.8
20260507042232 0 77 1.7 3.5 0.00 0.00 0.00 1018.8
20260507041730 0 80 0.0 5.2 0.00 0.00 0.00 1018.6
20260507041226 0 79 1.7 7.8 0.00 0.00 0.00 1018.9
20260507040724 0 320 2.6 6.1 0.00 0.00 0.00 1019.0
20260507040220 0 326 1.7 4.3 0.00 0.00 0.00 1018.9
20260507035716 0 101 0.9 3.5 0.00 0.00 0.00 1018.8
20260507035211 0 229 0.0 2.6 0.00 0.00 0.00 1018.8
20260507034709 0 66 0.0 2.6 0.00 0.00 0.00 1018.5
20260507034206 0 37 1.7 5.2 0.00 0.00 0.00 1018.3
20260507033704 0 63 3.5 7.0 0.00 0.00 0.00 1018.4
20260507033201 0 15 3.5 6.1 0.00 0.00 0.00 1018.7
20260507032659 0 124 1.7 4.3 0.00 0.00 0.00 1018.7
20260507032154 0 112 0.9 6.1 0.00 0.00 0.00 1018.3
20260507031651 0 348 0.0 8.7 0.00 0.00 0.00 1017.9
20260507031148 0 34 1.7 3.5 0.00 0.00 0.00 1017.9
20260507030645 0 12 1.7 6.1 0.00 0.00 0.00 1017.8
20260507030143 0 11 2.6 6.1 0.00 0.00 0.00 1018.4
20260507025639 0 26 3.5 4.3 0.00 0.00 0.00 1018.5
20260507025136 0 6 1.7 4.3 0.00 0.00 0.00 1018.3
20260507024634 0 82 2.6 5.2 0.00 0.00 0.00 1018.2
20260507024131 0 6 2.6 3.5 0.00 0.00 0.00 1018.1
20260507023627 0 46 0.9 4.3 0.00 0.00 0.00 1017.9
20260507023124 0 62 0.0 3.5 0.00 0.00 0.00 1017.9
20260507022621 0 319 0.0 2.6 0.00 0.00 0.00 1017.4
20260507022116 0 58 0.0 2.6 0.00 0.00 0.00 1017.8
20260507021613 0 24 0.0 1.7 0.00 0.00 0.00 1017.8
20260507021109 0 7 2.6 4.3 0.00 0.00 0.00 1017.6
20260507020608 0 312 2.6 4.3 0.00 0.00 0.00 1016.8
20260507020103 0 76 0.0 2.6 0.00 0.00 0.00 1016.8
20260507015602 0 53 0.0 2.6 0.00 0.00 0.00 1016.8
20260507015059 0 43 1.7 7.0 0.00 0.00 0.00 1016.8
20260507014555 0 55 0.0 3.5 0.00 0.00 0.00 1016.8
20260507014051 0 89 1.7 4.3 0.00 0.00 0.00 1016.8
20260507013548 0 13 1.7 2.6 0.00 0.00 0.00 1016.8
20260507013045 0 0 2.6 5.2 0.00 0.00 0.00 1016.1
20260507012543 0 147 0.0 1.7 0.00 0.00 0.00 1016.1
20260507012038 0 26 0.0 4.3 0.00 0.00 0.00 1016.1
20260507011536 0 15 1.7 3.5 0.00 0.00 0.00 1016.1
20260507011032 0 76 0.0 4.3 0.00 0.00 0.00 1016.1
20260507010526 0 119 0.0 4.3 0.00 0.00 0.00 1016.1
20260507010023 0 39 0.0 2.6 0.00 0.00 0.00 1016.1
20260507005521 0 235 0.0 4.3 0.00 0.00 0.00 1016.1
20260507005017 0 288 0.9 3.5 0.00 0.00 0.00 1016.0
20260507004514 0 345 1.7 6.1 0.00 0.00 0.00 1016.1
20260507004012 0 15 0.0 2.6 0.00 0.00 0.00 1016.1
20260507003507 0 62 0.0 7.8 0.00 0.00 0.00 1016.1
20260507003002 0 13 0.0 2.6 0.00 0.00 0.00 1016.1
20260507002459 0 15 2.6 5.2 0.00 0.00 0.00 1016.0
20260507001955 0 79 0.0 2.6 0.00 0.00 0.00 1016.0
20260507001452 0 350 0.0 3.5 0.00 0.00 0.00 1016.0
20260507000949 0 134 0.9 7.0 0.00 0.00 0.00 1016.0
20260507000445 0 68 0.9 2.6 0.00 0.00 0.00 1015.9
20260506235941 0 196 0.0 2.6 0.00 0.00 0.00 1015.9
20260506235438 0 108 0.0 3.5 0.00 0.00 0.00 1015.9
20260506234933 0 250 0.0 2.6 0.00 0.00 0.00 1015.9
20260506234432 0 269 0.0 3.5 0.00 0.00 0.00 1015.9
20260506233929 0 353 3.5 5.2 0.00 0.00 0.00 1015.5
20260506233425 0 289 0.0 4.3 0.00 0.00 0.00 1015.8
20260506232922 0 308 0.0 6.1 0.00 0.00 0.00 1015.7
20260506232418 0 316 0.9 3.5 0.00 0.00 0.00 1015.8
20260506231914 0 319 1.7 4.3 0.00 0.00 0.00 1016.1
20260506231412 0 20 1.7 4.3 0.00 0.00 0.00 1016.1
20260506230909 0 246 0.0 4.3 0.00 0.00 0.00 1015.7
20260506230405 0 111 0.0 4.3 0.00 0.00 0.00 1015.7
20260506225902 0 357 2.6 4.3 0.00 0.00 0.00 1015.7
20260506225359 0 128 0.9 4.3 0.00 0.00 0.00 1015.9
20260506224856 0 209 0.0 3.5 0.00 0.00 0.00 1015.9
20260506224354 0 77 1.7 2.6 0.00 0.00 0.00 1015.6
20260506223850 0 24 0.9 4.3 0.00 0.00 0.00 1015.8
20260506223345 0 355 1.7 5.2 0.00 0.00 0.00 1015.5
20260506222842 0 344 0.9 5.2 0.00 0.00 0.00 1015.3
20260506222338 0 31 0.0 4.3 0.00 0.00 0.00 1015.6
20260506221836 0 326 0.9 7.0 0.00 0.00 0.00 1015.5
20260506221333 0 71 1.7 5.2 0.00 0.00 0.00 1015.4
20260506220831 0 289 3.5 4.3 0.00 0.00 0.00 1015.8
20260506220326 0 0 3.5 6.1 0.00 0.00 0.00 1015.8
20260506215823 0 320 2.6 5.2 0.00 0.00 0.00 1015.5
20260506215319 0 228 1.7 7.8 0.00 0.00 0.00 1015.6
20260506214815 0 338 2.6 7.8 0.00 0.00 0.00 1015.6
20260506214312 0 8 1.7 4.3 0.00 0.00 0.00 1015.6
20260506213810 0 11 1.7 3.5 0.00 0.00 0.00 1015.5
20260506213306 0 0 5.2 7.8 0.00 0.00 0.00 1015.6
20260506212804 0 66 1.7 7.8 0.00 0.00 0.00 1015.7
20260506212259 0 71 0.9 2.6 0.00 0.00 0.00 1015.8
20260506211754 0 319 0.9 7.0 0.00 0.00 0.00 1015.8
20260506211251 0 316 2.6 7.0 0.00 0.00 0.00 1015.7
20260506210748 0 114 1.7 7.8 0.00 0.00 0.00 1015.8
20260506210245 0 30 2.6 3.5 0.00 0.00 0.00 1015.8
20260506205742 0 246 0.0 5.2 0.00 0.00 0.00 1015.8
20260506205238 0 323 2.6 4.3 0.00 0.00 0.00 1015.8
20260506204735 0 242 0.0 4.3 0.00 0.00 0.00 1015.7
20260506204233 0 275 1.7 4.3 0.00 0.00 0.00 1016.0
20260506203731 0 67 3.5 7.8 0.00 0.00 0.00 1016.0
20260506203227 0 3 0.9 5.2 0.00 0.00 0.00 1015.9
20260506202725 0 346 2.6 4.3 0.00 0.00 0.00 1015.9
20260506202221 0 283 1.7 7.8 0.00 0.00 0.00 1015.7
20260506201718 0 354 2.6 6.1 0.00 0.00 0.00 1015.8
20260506201215 0 63 1.7 11.3 0.00 0.00 0.00 1015.7
20260506200712 0 10 2.6 7.8 0.00 0.00 0.00 1015.8
20260506200209 0 135 0.9 7.8 0.00 0.00 0.00 1015.7
20260506195705 0 55 4.3 9.6 0.00 0.00 0.00 1015.5
20260506195201 0 7 4.3 9.6 0.00 0.00 0.00 1015.5
20260506194659 0 11 2.6 4.3 0.00 0.00 0.00 1015.5
20260506194155 0 325 0.9 6.1 0.00 0.00 0.00 1015.5
20260506193653 0 117 1.7 6.1 0.00 0.00 0.00 1015.5
20260506193149 0 8 2.6 8.7 0.00 0.00 0.00 1015.5
20260506192646 0 44 1.7 5.2 0.00 0.00 0.00 1015.8
20260506192142 0 239 3.5 5.2 0.00 0.00 0.00 1015.9
20260506191640 0 3 0.0 3.5 0.00 0.00 0.00 1015.9
20260506191135 0 312 0.0 5.2 0.00 0.00 0.00 1015.9
20260506190633 0 89 0.0 6.1 0.00 0.00 0.00 1015.9
20260506190130 0 13 2.6 4.3 0.00 0.00 0.00 1015.9
20260506185627 0 300 1.7 6.1 0.00 0.00 0.00 1015.5
20260506185123 0 6 0.9 3.5 0.00 0.00 0.00 1015.5
20260506184620 0 338 0.0 3.5 0.00 0.00 0.00 1015.5
20260506184118 0 341 1.7 9.6 0.00 0.00 0.00 1015.6
20260506183614 0 318 1.7 8.7 0.00 0.00 0.00 1015.5
20260506183110 0 272 0.9 3.5 0.00 0.00 0.00 1015.4
20260506182608 0 77 0.0 2.6 0.00 0.00 0.00 1015.4
20260506182105 0 275 2.6 2.6 0.00 0.00 0.00 1015.3
20260506181603 0 310 2.6 4.3 0.00 0.00 0.00 1015.4
20260506181059 0 3 2.6 8.7 0.00 0.00 0.00 1017.1
20260506180556 0 183 0.9 4.3 0.00 0.00 0.00 1015.3
20260506180053 0 319 0.9 6.1 0.00 0.00 0.00 1015.2
20260506175549 0 40 1.7 4.3 0.00 0.00 0.00 1015.1
20260506175045 0 350 1.7 6.1 0.00 0.00 0.00 1015.1
20260506174544 0 209 0.0 3.5 0.00 0.00 0.00 1015.1
20260506174039 0 306 0.0 3.5 0.00 0.00 0.00 1014.9
20260506173538 0 304 1.7 4.3 0.00 0.00 0.00 1014.9
20260506173034 0 22 0.0 3.5 0.00 0.00 0.00 1014.9
20260506172532 0 235 0.0 2.6 0.00 0.00 0.00 1015.0
20260506172028 0 348 1.7 3.5 0.00 0.00 0.00 1015.2
20260506171525 0 144 2.6 4.3 0.00 0.00 0.00 1015.1
20260506171023 0 336 2.6 4.3 0.00 0.00 0.00 1014.7
20260506170520 0 178 2.6 4.3 0.00 0.00 0.00 1014.8
20260506170012 0 185 1.7 4.3 0.00 0.00 0.00 1015.0
20260506165510 0 40 3.5 4.3 0.00 0.00 0.00 1014.9
20260506165006 0 0 0.0 5.2 0.00 0.00 0.00 1015.1
20260506164503 0 343 2.6 4.3 0.00 0.00 0.00 1015.1
20260506164001 0 31 0.0 2.6 0.00 0.00 0.00 1015.5
20260506163456 0 13 2.6 6.1 0.00 0.00 0.00 1015.5
20260506162950 0 123 1.7 7.0 0.00 0.00 0.00 1015.7
20260506162449 0 351 0.9 5.2 0.00 0.00 0.00 1015.7
20260506161946 0 322 1.7 4.3 0.00 0.00 0.00 1015.1